TimePST,TemperatureF,Dew PointF,Humidity,Sea Level PressureIn,VisibilityMPH,Wind Direction,Wind SpeedMPH,Gust SpeedMPH,PrecipitationIn,Events,Conditions,WindDirDegrees,DateUTC
12:56 AM,33.1,24.1,70,30.39,10.0,West,4.6,-,N/A,,Overcast,260,2012-12-10 08:56:00
1:56 AM,34.0,24.1,67,30.36,10.0,South,8.1,-,N/A,,Overcast,190,2012-12-10 09:56:00
2:56 AM,34.0,25.0,70,30.33,10.0,South,9.2,-,N/A,,Overcast,180,2012-12-10 10:56:00
3:56 AM,35.1,24.1,64,30.34,10.0,South,6.9,-,N/A,,Overcast,170,2012-12-10 11:56:00
4:56 AM,36.0,24.1,62,30.35,10.0,South,9.2,-,N/A,,Overcast,170,2012-12-10 12:56:00
5:56 AM,35.1,24.1,64,30.35,10.0,South,8.1,-,N/A,,Overcast,170,2012-12-10 13:56:00
6:56 AM,33.1,25.0,72,30.38,10.0,SW,3.5,-,N/A,,Mostly Cloudy,230,2012-12-10 14:56:00
7:56 AM,33.1,24.1,70,30.39,10.0,Calm,Calm,-,N/A,,Mostly Cloudy,0,2012-12-10 15:56:00
8:56 AM,37.9,25.0,60,30.38,10.0,South,4.6,-,N/A,,Clear,190,2012-12-10 16:56:00
9:56 AM,37.9,26.1,62,30.40,10.0,ESE,3.5,-,N/A,,Partly Cloudy,120,2012-12-10 17:56:00
10:56 AM,41.0,26.1,55,30.38,10.0,SSW,4.6,-,N/A,,Clear,200,2012-12-10 18:56:00
11:56 AM,44.1,27.0,51,30.35,10.0,Calm,Calm,-,N/A,,Clear,0,2012-12-10 19:56:00
12:56 PM,46.0,28.9,51,30.29,10.0,SSE,5.8,-,N/A,,Clear,150,2012-12-10 20:56:00
1:56 PM,46.9,30.0,52,30.27,10.0,WSW,10.4,-,N/A,,Clear,250,2012-12-10 21:56:00
2:56 PM,46.9,28.9,50,30.27,10.0,WSW,8.1,-,N/A,,Clear,250,2012-12-10 22:56:00
3:56 PM,44.1,28.0,53,30.25,10.0,Calm,Calm,-,N/A,,Clear,0,2012-12-10 23:56:00
4:56 PM,39.9,28.0,63,30.26,10.0,SSE,5.8,-,N/A,,Clear,160,2012-12-11 00:56:00
5:56 PM,35.1,27.0,72,30.25,10.0,Calm,Calm,-,N/A,,Clear,0,2012-12-11 01:56:00
6:56 PM,32.0,26.1,79,30.27,10.0,Variable,3.5,-,N/A,,Clear,0,2012-12-11 02:56:00
7:56 PM,28.9,24.1,82,30.28,10.0,SE,4.6,-,N/A,,Clear,130,2012-12-11 03:56:00
8:56 PM,28.9,24.1,82,30.27,10.0,Calm,Calm,-,N/A,,Clear,0,2012-12-11 04:56:00
9:56 PM,28.9,24.1,82,30.26,10.0,Calm,Calm,-,N/A,,Clear,0,2012-12-11 05:56:00
10:56 PM,26.1,23.0,88,30.25,10.0,Calm,Calm,-,N/A,,Clear,0,2012-12-11 06:56:00
11:56 PM,26.1,23.0,88,30.23,10.0,East,3.5,-,N/A,,Clear,90,2012-12-11 07:56:00